This is the latest recevied weather packets stored in our database for station/object W1REE. If no packets are shown the sender has not sent any weather packets the latest 10 day(s).
| Time | Temp. | Humidity | Pressure | Rain* | Wind** | Luminosity | Snow |
|---|---|---|---|---|---|---|---|
| 1778102808 | 2.78° C | 73% | 1021.1 hPa | 0 mm | - | 71 W/m² | - |
| 1778102502 | 2.78° C | 71% | 1020.8 hPa | 0 mm | - | 75 W/m² | - |
| 1778102198 | 3.33° C | 71% | 1020.8 hPa | 0 mm | - | 98 W/m² | - |
| 1778101895 | 3.33° C | 71% | 1020.7 hPa | 0 mm | - | 125 W/m² | - |
| 1778101592 | 2.78° C | 70% | 1020.8 hPa | 0 mm | - | 164 W/m² | - |
| 1778101288 | 2.78° C | 71% | 1021 hPa | 0 mm | - | 154 W/m² | - |
| 1778100986 | 2.78° C | 71% | 1021 hPa | 0 mm | - | 143 W/m² | - |
| 1778100680 | 2.78° C | 74% | 1020.7 hPa | 0 mm | - | 100 W/m² | - |
| 1778100379 | 2.78° C | 70% | 1020.8 hPa | 0 mm | - | 145 W/m² | - |
| 1778100075 | 2.78° C | 71% | 1020.8 hPa | 0 mm | - | 145 W/m² | - |
| 1778099774 | 2.78° C | 74% | 1020.8 hPa | 0 mm | - | 126 W/m² | - |
| 1778099469 | 2.78° C | 73% | 1021.1 hPa | 0 mm | - | 143 W/m² | - |
| 1778099168 | 2.22° C | 76% | 1021 hPa | 0 mm | - | 167 W/m² | - |
| 1778098864 | 2.22° C | 76% | 1021 hPa | 0 mm | - | 141 W/m² | - |
| 1778098561 | 2.22° C | 80% | 1021 hPa | 0 mm | - | 111 W/m² | - |
| 1778098258 | 2.22° C | 80% | 1021 hPa | 0 mm | - | 145 W/m² | - |
| 1778097954 | 1.67° C | 79% | 1020.8 hPa | 0 mm | - | 158 W/m² | - |
| 1778097651 | 2.22° C | 79% | 1021 hPa | 0 mm | - | 83 W/m² | - |
| 1778097347 | 2.78° C | 80% | 1020.7 hPa | 0 mm | - | 85 W/m² | - |
| 1778097044 | 2.78° C | 77% | 1021.1 hPa | 1.27 mm | - | 132 W/m² | - |
| 1778096742 | 2.22° C | 78% | 1020.7 hPa | 1.27 mm | - | 589 W/m² | - |
| 1778096438 | 2.22° C | 82% | 1020.7 hPa | 0 mm | - | 447 W/m² | - |
| 1778096136 | 1.67° C | 83% | 1020.7 hPa | 0 mm | - | 218 W/m² | - |
| 1778095832 | 1.67° C | 84% | 1021 hPa | 0 mm | - | 234 W/m² | - |
| 1778095529 | 1.67° C | 88% | 1020.8 hPa | 0 mm | - | 226 W/m² | - |
* Rain latest hour (hover to see other rain measurements)
** Current wind speed in m/s (hover to see current wind gust speed)